Regional Weather Roundup
Issued by NWS

Home | Current Version | Previous Version | Graphics & Text | Print | Product List | Glossary On
Versions: 1 2 3 4 5 6 7 8 9 10 11 12 13 14 15 16 17 18 19 20 21 22 23 24 25 26 27 28 29 30 31 32 33 34 35 36 37 38 39 40 41 42 43 44 45 46 47 48 49 50
000
ASUS45 KCYS 310210
RWRWY

WYOMING REGIONAL WEATHER ROUNDUP
NATIONAL WEATHER SERVICE CHEYENNE WY
700 PM MST FRI JAN 30 2015

NOTE:  "FAIR" INDICATES FEW OR NO CLOUDS BELOW 12,000 FEET
WITH NO SIGNIFICANT WEATHER AND/OR OBSTRUCTIONS TO VISIBILITY.

WYZ001-310300-
YELLOWSTONE NATIONAL PARK

CITY           SKY/WX    TMP DP  RH WIND       PRES   REMARKS
LK YELLOWSTONE   N/A      7   3  84 CALM      30.13F
W YELLOWSTONE  NOT AVBL

$$
WYZ002>013-054>058-071-098>099-310300-
NORTHERN WYOMING

CITY           SKY/WX    TMP DP  RH WIND       PRES   REMARKS
JACKSON        CLEAR     18  14  86 VRB6      30.12R WCI   9
CODY           FAIR      30  25  80 S5        30.12F WCI  25
GREYBULL       FOG       28  27  96 CALM      30.16F VSB 1/4
WORLAND        FAIR      25  23  92 SW6       30.15F WCI  18
SHERIDAN       FAIR      29  21  72 S5        30.12F WCI  24
BUFFALO        FAIR      35  19  52 SW3       30.14F
GILLETTE       FAIR      26  22  84 S6        30.13F WCI  19
HULETT           N/A    N/A N/A N/A MISG        N/A
NEWCASTLE      FAIR      34  27  75 SE8       30.13F WCI  27

$$
WYZ014>020-022>026-101>103-310300-
CENTRAL WYOMING

CITY           SKY/WX    TMP DP  RH WIND       PRES   REMARKS
BIG PINEY      CLOUDY    29  21  72 N3        30.09F
PINEDALE       CLOUDY    27  21  80 NW6       30.09F WCI  20
DUBOIS         FAIR      30  19  64 S10       30.12R WCI  21
LANDER         MOCLDY    33  26  75 W8        30.12F WCI  26
RIVERTON       FAIR      33  27  78 CALM      30.14S
CASPER         FAIR      33  20  58 NE6       30.13S WCI  28
DOUGLAS        FAIR      31  23  72 NW3       30.14S

$$
WYZ021-027>030-104>119-310300-
SOUTHERN WYOMING

CITY           SKY/WX    TMP DP  RH WIND       PRES   REMARKS
EVANSTON       FLURRIES  33  26  75 NE8       30.04S WCI  26
KEMMERER       MIX PCPN  32  28  86 NE13      30.06F WCI  22
FORT BRIDGER   CLOUDY    34  31  88 NE6       30.08S WCI  29
ROCK SPRINGS   CLOUDY    32  26  78 NE20      30.06F WCI  20
DIXON          CLOUDY    36  33  87 NE5       30.04S WCI  32
RAWLINS        CLOUDY    34  29  82 NE7       30.07F WCI  28
SARATOGA       CLOUDY    34  32  93 MISG      30.06F
LARAMIE        CLOUDY    32  27  81 NE5       30.08F WCI  27
CHEYENNE       FAIR      36  24  62 N8        30.09F WCI  30
TORRINGTON     FAIR      37  27  67 NE9       30.11R WCI  30
PINE BLUFFS    FAIR      32  27  80 N8        30.09F WCI  25

$$



USA.gov is the U.S. government's official web portal to all federal, state and local government web resources and services.